GMT,Max TemperatureF,Mean TemperatureF,Min TemperatureF,Max Dew PointF,MeanDew PointF,Min DewpointF,Max Humidity, Mean Humidity, Min Humidity, Max Sea Level PressureIn, Mean Sea Level PressureIn, Min Sea Level PressureIn, Max VisibilityMiles, Mean VisibilityMiles, Min VisibilityMiles, Max Wind SpeedMPH, Mean Wind SpeedMPH, Max Gust SpeedMPH,PrecipitationIn, CloudCover, Events, WindDirDegrees
2011-12-1,53,48,42,50,43,37,94,80,62,29.80,29.73,29.68,6,6,4,18,11,,0.00,4,Rain,252
2011-12-2,48,40,35,45,38,34,100,87,71,29.98,29.89,29.74,6,6,6,16,8,22,0.00,3,Rain,248
2011-12-3,53,50,46,50,44,37,94,79,62,29.71,29.63,29.56,6,6,4,21,15,26,0.00,4,Rain,248
2011-12-4,48,44,39,45,40,34,87,80,71,29.65,29.55,29.44,6,6,6,17,11,29,0.00,3,Rain,256
2011-12-5,44,40,37,36,33,30,87,75,57,29.74,29.71,29.62,6,6,6,21,13,,0.00,1,,261
2011-12-6,44,40,37,39,35,32,87,79,71,29.80,29.74,29.68,6,6,6,16,12,,0.00,2,,246
2011-12-7,48,44,39,43,35,28,87,66,46,30.12,29.80,29.59,6,6,6,24,17,36,0.00,1,,267
2011-12-8,55,47,39,50,42,34,88,81,71,30.12,29.83,29.56,6,6,2,29,14,43,0.00,4,Rain,234
2011-12-9,46,40,32,36,32,28,87,71,57,29.95,29.85,29.74,6,6,6,18,15,,0.00,1,,262
2011-12-10,42,36,30,34,31,27,93,80,66,30.01,29.99,29.95,6,6,6,13,8,,0.00,4,,255
2011-12-11,48,42,35,45,40,32,93,87,76,29.98,29.73,29.53,6,6,3,17,8,24,0.00,4,Rain,205
2011-12-12,50,44,37,48,39,34,94,83,66,29.74,29.59,29.15,6,6,3,25,12,38,0.00,4,Rain,226
2011-12-13,53,46,39,50,37,30,94,72,57,29.39,29.24,29.03,6,6,3,29,19,41,0.00,2,Rain,242
2011-12-14,42,40,37,36,34,32,93,78,66,29.44,29.37,29.24,6,6,6,23,11,33,0.00,1,Rain,227
2011-12-15,46,42,37,37,36,32,93,78,66,29.56,29.42,29.15,6,6,6,28,13,37,0.00,3,Rain,225
2011-12-16,41,38,35,37,34,32,93,86,70,29.59,29.20,28.94,6,6,3,17,10,,0.00,5,Rain-Snow,319
2011-12-17,42,36,30,37,33,28,93,85,75,29.95,29.80,29.62,6,6,4,16,9,,0.00,3,Rain,288
2011-12-18,42,37,30,36,31,28,93,83,70,30.09,30.02,29.95,6,6,4,16,8,,0.00,3,Rain,291
2011-12-19,44,36,28,43,36,27,93,92,87,30.09,29.95,29.80,6,6,3,15,5,,0.00,4,Rain,228
2011-12-20,46,44,41,41,38,36,93,80,66,30.12,29.99,29.83,6,6,5,15,8,25,0.00,3,Rain,271
2011-12-21,55,48,42,52,47,41,100,91,82,30.21,30.06,29.95,6,5,1,13,7,,0.00,5,Rain,265
2011-12-22,53,50,46,48,46,45,93,84,76,30.30,30.26,30.21,6,6,6,14,10,,0.00,3,,262
2011-12-23,53,47,39,48,43,34,94,82,76,30.21,30.05,29.80,6,6,4,17,13,32,0.00,5,Rain,246
2011-12-24,48,42,35,43,37,32,87,80,71,30.45,30.36,30.21,6,6,6,16,11,28,0.00,3,Rain,256
2011-12-25,53,50,48,48,45,43,87,79,72,30.45,30.37,30.30,6,6,6,18,13,29,0.00,6,,237
2011-12-26,55,52,50,50,47,41,88,81,71,30.54,30.51,30.45,6,6,6,21,14,26,0.00,6,,239
2011-12-27,51,48,44,43,41,39,87,73,66,30.57,30.49,30.30,6,6,6,14,11,24,0.00,6,,226
2011-12-28,51,46,42,48,40,34,94,74,58,30.27,30.15,30.09,6,6,6,20,14,29,0.00,4,Rain,246
2011-12-29,50,46,41,43,37,32,87,73,66,30.30,30.13,29.98,6,6,3,24,16,38,0.00,4,Rain,265
2011-12-30,51,46,41,50,40,36,94,84,76,30.15,30.02,29.83,6,6,2,16,11,20,0.00,4,Rain,255
2011-12-31,55,53,51,50,49,48,94,86,82,29.86,29.82,29.77,6,6,6,20,14,,0.00,5,Rain,255